This is the latest recevied weather packets stored in our database for station/object DL4PY-13. If no packets are shown the sender has not sent any weather packets the latest 10 day(s).
| Time | Temp. | Humidity | Pressure | Rain* | Wind** | Luminosity | Snow |
|---|---|---|---|---|---|---|---|
| 1777790481 | 15.56° C | 55% | 1014.5 hPa | 0 mm | - | - | - |
| 1777790000 | 15.56° C | 51% | 1014.4 hPa | 0 mm | - | - | - |
| 1777736326 | 25° C | 45% | 1016.8 hPa | 0 mm | - | - | - |
| 1777736037 | 25° C | 46% | 1016.8 hPa | 0 mm | - | - | - |
| 1777735428 | 25.56° C | 45% | 1016.9 hPa | 0 mm | - | - | - |
| 1777735138 | 25° C | 45% | 1017 hPa | 0 mm | - | - | - |
| 1777734838 | 25° C | 47% | 1017 hPa | 0 mm | - | - | - |
| 1777734528 | 25° C | 45% | 1017.1 hPa | 0 mm | - | - | - |
| 1777734238 | 25° C | 46% | 1017.1 hPa | 0 mm | - | - | - |
| 1777733937 | 25.56° C | 45% | 1017.2 hPa | 0 mm | - | - | - |
| 1777733628 | 25° C | 45% | 1017.2 hPa | 0 mm | - | - | - |
| 1777733338 | 25.56° C | 43% | 1017.3 hPa | 0 mm | - | - | - |
| 1777733038 | 25.56° C | 45% | 1017.4 hPa | 0 mm | - | - | - |
| 1777732726 | 25.56° C | 43% | 1017.4 hPa | 0 mm | - | - | - |
| 1777732437 | 26.11° C | 43% | 1017.4 hPa | 0 mm | - | - | - |
| 1777732141 | 26.11° C | 42% | 1017.5 hPa | 0 mm | - | - | - |
| 1777731827 | 26.11° C | 42% | 1017.5 hPa | 0 mm | - | - | - |
| 1777731537 | 25.56° C | 44% | 1017.7 hPa | 0 mm | - | - | - |
| 1777731238 | 25.56° C | 45% | 1017.7 hPa | 0 mm | - | - | - |
| 1777730928 | 25.56° C | 43% | 1017.8 hPa | 0 mm | - | - | - |
| 1777730640 | 25.56° C | 43% | 1017.9 hPa | 0 mm | - | - | - |
| 1777730337 | 25.56° C | 42% | 1017.8 hPa | 0 mm | - | - | - |
| 1777730028 | 26.11° C | 43% | 1017.9 hPa | 0 mm | - | - | - |
| 1777729738 | 25.56° C | 43% | 1017.9 hPa | 0 mm | - | - | - |
| 1777729438 | 25.56° C | 44% | 1018 hPa | 0 mm | - | - | - |
* Rain latest hour (hover to see other rain measurements)
** Current wind speed in m/s (hover to see current wind gust speed)